Cloud_Cover
2 5 4 0 1 0 0 0 0 5 5 42 98 50 77 26 61 14 8 12 24 67 97 41 44 2 3 8 89 100 65 75 97 8 0 10 14 0 0 0 0 59 0 2 7 85 96 74 85
0 1 6 15 2 10 6 0 0 5 5 66 100 79 79 79 14 49 29 79 95 93 94 35 11 5 3 1 100 97 98 37 2 3 0 0 0 0 0 0 0 0 2 11 14 65 67 100 52
0 0 0 16 88 96 11 0 0 13 5 6 16 5 59 60 5 15 16 100 100 96 64 47 5 5 5 36 100 100 100 89 100 4 0 0 1 1 18 0 5 10 1 4 34 92 90 100 43
0 0 0 0 99 100 64 0 0 0 5 5 5 5 62 90 11 46 25 100 100 100 72 8 49 95 35 100 100 99 72 0 0 70 2 0 0 16 44 0 9 99 0 18 18 54 70 100 16
0 0 0 0 99 100 71 1 0 5 0 5 5 5 5 81 79 59 97 100 100 100 55 50 88 100 68 100 100 98 98 56 0 0 43 0 0 21 2 0 0 0 0 4 12 56 41 100 31
0 0 0 0 47 100 100 13 0 5 1 3 5 5 4 24 100 99 100 100 100 55 40 100 100 51 100 100 100 34 100 58 15 0 0 3 1 88 6 3 0 0 0 33 100 75 54 86 28
0 0 0 0 5 60 96 37 5 85 5 6 5 5 5 44 71 100 100 100 100 97 98 99 100 100 99 100 95 80 7 7 25 2 35 0 0 36 24 0 1 0 5 71 100 54 77 98 48
0 0 0 0 52 78 1 100 74 100 18 6 39 5 5 9 100 100 100 100 100 100 100 100 100 96 100 100 100 86 16 5 5 20 2 2 1 3 98 100 0 96 81 100 1 46 97 98 66
0 0 0 5 74 50 1 7 99 100 96 5 11 13 42 82 87 100 100 100 100 100 100 100 100 100 100 100 100 99 14 5 6 25 4 5 5 63 100 99 5 5 74 12 0 11 96 58 6
0 1 0 0 95 100 37 30 99 100 100 60 100 100 25 100 100 100 100 100 100 100 100 100 100 100 97 87 99 100 98 26 5 34 14 57 8 28 61 28 56 5 1 5 29 11 5 7 5
5 26 0 0 1 100 100 100 100 100 100 100 100 100 89 100 100 100 100 100 100 100 100 100 100 100 100 100 66 100 100 96 55 38 100 58 87 40 46 76 25 5 0 10 7 11 19 48 42
0 0 0 0 0 13 100 100 100 91 100 100 100 100 100 100 100 100 82 100 100 100 100 100 100 100 100 100 100 99 100 100 87 49 91 72 86 87 100 88 27 11 5 5 5 49 56 7 15
0 0 0 0 0 2 95 100 96 100 100 100 100 100 100 100 95 99 100 100 100 100 100 100 100 100 100 100 100 100 100 100 85 100 99 95 100 91 34 46 29 19 5 5 5 9 28 43 56
0 0 0 0 0 2 3 97 100 75 96 100 100 100 100 97 90 5 68 100 100 100 100 100 100 100 100 100 100 100 100 100 100 100 100 100 98 90 64 21 22 20 13 32 57 78 99 100 83
0 0 0 0 21 0 0 49 100 30 69 100 100 100 100 95 100 36 5 100 100 100 100 100 100 100 100 100 100 100 100 100 100 100 100 100 100 99 90 86 77 100 36 15 52 95 58 89 92
0 0 0 0 60 5 6 56 100 100 98 100 100 100 100 100 100 100 67 48 100 95 100 100 90 100 100 100 100 100 100 100 100 100 100 100 100 100 100 100 100 100 100 92 83 78 51 43 63
2 1 3 0 70 96 100 100 37 5 8 74 100 100 100 100 100 100 100 99 92 100 90 93 100 100 100 100 100 100 100 100 100 100 100 100 100 100 100 100 100 100 100 100 100 100 98 56 54
5 5 4 2 7 100 85 12 21 2 0 5 78 100 100 100 100 100 100 100 100 54 86 34 52 100 100 100 100 100 100 100 100 100 100 100 100 100 100 100 100 100 100 100 100 100 100 100 100
5 5 5 0 22 29 68 83 46 5 0 0 6 100 100 100 100 100 100 100 100 99 60 28 100 100 100 100 100 100 100 100 100 100 100 100 100 100 100 100 100 100 100 100 100 100 100 100 100
5 5 5 2 0 0 16 86 43 28 5 0 5 26 100 100 100 100 100 99 100 100 100 87 96 100 100 100 100 100 100 100 100 100 100 100 100 100 100 100 100 100 100 100 100 100 100 100 100
5 5 5 5 1 0 0 3 100 74 61 5 5 5 54 100 100 100 100 100 73 100 100 100 100 100 100 100 100 100 100 100 100 100 100 100 100 100 100 100 100 100 100 100 100 100 100 100 100
5 5 5 5 5 4 0 4 2 98 55 6 5 5 5 10 100 100 100 100 98 96 100 100 100 100 100 100 100 100 100 100 100 100 100 100 100 100 100 100 100 100 100 100 100 100 100 100 100
5 5 5 5 5 4 0 4 0 11 98 16 5 5 20 10 6 99 100 100 100 100 100 100 100 92 99 100 100 100 100 100 100 92 100 100 100 100 100 100 100 100 100 100 100 100 100 100 100
5 5 5 33 4 5 5 4 5 98 98 88 6 6 58 14 13 81 95 100 100 100 100 100 100 100 100 100 100 100 100 100 100 100 100 100 100 100 100 100 100 100 100 100 100 100 100 100 100
5 5 14 84 59 5 5 2 86 69 13 33 67 32 30 67 100 66 90 90 28 99 100 100 100 100 100 100 100 100 100 100 100 100 100 100 100 100 100 100 100 100 100 100 100 100 100 100 100
31 83 33 100 99 47 1 9 12 43 5 5 5 29 90 100 100 100 100 100 100 64 38 97 100 100 100 100 100 100 100 100 100 100 100 100 100 100 100 100 100 100 100 100 100 100 100 100 100
24 56 74 95 97 83 5 35 96 20 5 5 9 51 98 100 100 100 100 100 100 100 100 100 100 100 100 100 100 100 100 100 100 100 100 100 100 100 100 100 100 100 100 100 100 100 100 100 100
24 27 14 70 52 85 21 5 18 20 68 43 59 98 100 100 100 100 100 87 100 100 100 100 100 100 100 100 100 100 100 100 100 100 100 100 100 100 100 100 100 100 100 100 100 100 100 100 100
80 7 44 82 96 100 92 36 83 100 100 66 100 100 98 94 98 99 100 100 100 100 100 100 100 100 100 100 100 100 100 100 100 100 100 100 100 100 100 100 100 100 100 100 100 100 100 100 100
98 77 90 8 20 77 95 54 99 100 100 100 100 100 54 60 46 53 90 99 92 100 100 100 100 100 100 100 100 100 100 100 100 100 100 100 100 100 100 100 100 100 100 100 100 100 100 100 100